KNA3216 ZGDY-ZPPP

Flight info

Callsign KNA3216
Flight time 1h 45m
Altitude 30100
Route HUY1D/08 HUY A581 QNX W136 XISLI
Aircraft B737/M-SDE2E3FGILRWXY/LB2

Departure

Time 2026-04-21 12:22
Airport Zhangjiajie Hehua International Airport (ZGDY)

Arrival

Time 2026-04-21 14:08
Airport Kunming Changshui International Airport (ZPPP)
Time Latitude Longitude Altitude Speed Heading
2026-04-21 12:03 29.10581 110.44113 714 ft 0 kts 31°
2026-04-21 12:08 29.10576 110.44110 728 ft 2 kts 32°
2026-04-21 12:08 29.10560 110.44098 726 ft 3 kts 38°
2026-04-21 12:08 29.10545 110.44083 718 ft 3 kts 48°
2026-04-21 12:08 29.10534 110.44067 721 ft 2 kts 57°
2026-04-21 12:09 29.10528 110.44056 721 ft 3 kts 78°
2026-04-21 12:09 29.10530 110.44042 723 ft 3 kts 156°
2026-04-21 12:09 29.10549 110.44035 720 ft 3 kts 169°
2026-04-21 12:09 29.10566 110.44032 720 ft 2 kts 167°
2026-04-21 12:10 29.10569 110.44031 721 ft 1 kts 166°
2026-04-21 12:12 29.10568 110.44031 721 ft 0 kts 166°
2026-04-21 12:12 29.10555 110.44035 724 ft 3 kts 166°
2026-04-21 12:12 29.10532 110.44041 720 ft 4 kts 167°
2026-04-21 12:13 29.10502 110.44049 721 ft 5 kts 167°
2026-04-21 12:13 29.10466 110.44059 721 ft 6 kts 165°
2026-04-21 12:13 29.10427 110.44065 722 ft 6 kts 186°
2026-04-21 12:13 29.10398 110.44039 724 ft 6 kts 240°
2026-04-21 12:14 29.10384 110.43992 729 ft 7 kts 256°
2026-04-21 12:14 29.10372 110.43940 731 ft 7 kts 256°
2026-04-21 12:14 29.10360 110.43882 731 ft 8 kts 256°
2026-04-21 12:14 29.10346 110.43819 735 ft 9 kts 255°
2026-04-21 12:15 29.10326 110.43735 727 ft 13 kts 255°
2026-04-21 12:15 29.10304 110.43635 738 ft 13 kts 256°
2026-04-21 12:15 29.10282 110.43538 736 ft 12 kts 256°
2026-04-21 12:15 29.10261 110.43443 739 ft 12 kts 256°
2026-04-21 12:16 29.10241 110.43352 743 ft 12 kts 256°
2026-04-21 12:16 29.10221 110.43262 743 ft 12 kts 256°
2026-04-21 12:16 29.10201 110.43174 739 ft 11 kts 256°
2026-04-21 12:16 29.10182 110.43089 743 ft 11 kts 256°
2026-04-21 12:17 29.10135 110.43046 745 ft 6 kts 169°
2026-04-21 12:17 29.10089 110.43056 743 ft 7 kts 166°
2026-04-21 12:17 29.10038 110.43082 742 ft 9 kts 134°
2026-04-21 12:17 29.10024 110.43146 742 ft 0 kts 76°
2026-04-21 12:18 29.10030 110.43175 745 ft 19 kts 76°
2026-04-21 12:18 29.10128 110.43610 745 ft 93 kts 76°
2026-04-21 12:18 29.10338 110.44567 725 ft 153 kts 76°
2026-04-21 12:19 29.10616 110.45842 1182 ft 167 kts 76°
2026-04-21 12:19 29.10892 110.47131 1926 ft 174 kts 75°
2026-04-21 12:19 29.11207 110.48503 2707 ft 177 kts 76°
2026-04-21 12:19 29.11536 110.49950 3115 ft 193 kts 76°
2026-04-21 12:20 29.11871 110.51432 3516 ft 191 kts 75°
2026-04-21 12:20 29.12216 110.52971 3956 ft 212 kts 75°
2026-04-21 12:20 29.12605 110.54705 4364 ft 235 kts 76°
2026-04-21 12:20 29.13014 110.56546 4707 ft 245 kts 75°
2026-04-21 12:21 29.13444 110.58482 5196 ft 258 kts 75°
2026-04-21 12:21 29.13891 110.60505 5683 ft 265 kts 75°
2026-04-21 12:21 29.14352 110.62567 6282 ft 273 kts 72°
2026-04-21 12:21 29.15277 110.64467 6836 ft 283 kts 43°
2026-04-21 12:22 29.16929 110.65646 7437 ft 282 kts 13°
2026-04-21 12:22 29.18857 110.65781 8043 ft 279 kts 344°
2026-04-21 12:22 29.20583 110.64870 8671 ft 273 kts 316°
2026-04-21 12:22 29.21721 110.63177 9374 ft 269 kts 291°
2026-04-21 12:23 29.22193 110.61112 10002 ft 268 kts 274°
2026-04-21 12:23 29.22361 110.58956 10586 ft 279 kts 273°
2026-04-21 12:23 29.22513 110.56697 11166 ft 289 kts 272°
2026-04-21 12:23 29.22664 110.54360 11767 ft 296 kts 272°
2026-04-21 12:24 29.22455 110.52033 12339 ft 295 kts 250°
2026-04-21 12:24 29.21599 110.49898 12992 ft 297 kts 244°
2026-04-21 12:24 29.20689 110.47803 13605 ft 301 kts 244°
2026-04-21 12:24 29.19761 110.45642 13748 ft 303 kts 244°
2026-04-21 12:25 29.18830 110.43442 13792 ft 304 kts 244°
2026-04-21 12:25 29.17914 110.41261 13770 ft 303 kts 244°
2026-04-21 12:25 29.16946 110.39177 13903 ft 298 kts 236°
2026-04-21 12:25 29.15584 110.37282 14020 ft 320 kts 230°
2026-04-21 12:26 29.14033 110.35350 14289 ft 337 kts 229°
2026-04-21 12:26 29.12408 110.33358 14781 ft 345 kts 229°
2026-04-21 12:26 29.10767 110.31334 15463 ft 349 kts 229°
2026-04-21 12:26 29.09117 110.29282 16139 ft 352 kts 230°
2026-04-21 12:27 29.07451 110.27196 16767 ft 357 kts 230°
2026-04-21 12:27 29.05769 110.25080 17378 ft 362 kts 230°
2026-04-21 12:27 29.04069 110.22934 17983 ft 367 kts 230°
2026-04-21 12:27 29.02348 110.20760 18518 ft 371 kts 230°
2026-04-21 12:28 29.00606 110.18559 19060 ft 374 kts 230°
2026-04-21 12:28 28.98854 110.16348 19634 ft 377 kts 230°
2026-04-21 12:28 28.97112 110.14150 20171 ft 379 kts 230°
2026-04-21 12:28 28.95334 110.11906 20683 ft 383 kts 230°
2026-04-21 12:29 28.93539 110.09643 21172 ft 386 kts 231°
2026-04-21 12:29 28.91725 110.07355 21657 ft 389 kts 231°
2026-04-21 12:29 28.90085 110.04905 22124 ft 390 kts 239°
2026-04-21 12:29 28.88649 110.02270 22622 ft 392 kts 241°
2026-04-21 12:30 28.87249 109.99571 23125 ft 396 kts 242°
2026-04-21 12:30 28.85852 109.96861 23604 ft 398 kts 241°
2026-04-21 12:30 28.84433 109.94130 24023 ft 401 kts 241°
2026-04-21 12:30 28.82991 109.91390 24485 ft 404 kts 241°
2026-04-21 12:31 28.81533 109.88642 24914 ft 406 kts 240°
2026-04-21 12:31 28.80064 109.85895 25317 ft 407 kts 240°
2026-04-21 12:31 28.78584 109.83136 25736 ft 407 kts 240°
2026-04-21 12:31 28.77109 109.80392 26246 ft 405 kts 240°
2026-04-21 12:32 28.75640 109.77666 26853 ft 401 kts 240°
2026-04-21 12:32 28.74187 109.74967 27469 ft 397 kts 240°
2026-04-21 12:32 28.72762 109.72323 28040 ft 395 kts 240°
2026-04-21 12:32 28.71326 109.69659 28608 ft 393 kts 240°
2026-04-21 12:33 28.69902 109.67019 29227 ft 390 kts 240°
2026-04-21 12:33 28.68482 109.64387 29864 ft 388 kts 240°
2026-04-21 12:33 28.67066 109.61762 30032 ft 391 kts 240°
2026-04-21 12:34 28.64234 109.56519 30063 ft 387 kts 240°
2026-04-21 12:34 28.61410 109.51298 30071 ft 387 kts 240°
2026-04-21 12:35 28.58588 109.46088 30063 ft 386 kts 240°
2026-04-21 12:35 28.56012 109.40738 30070 ft 384 kts 245°
2026-04-21 12:36 28.53691 109.35315 30075 ft 384 kts 245°
2026-04-21 12:36 28.51324 109.29846 30056 ft 385 kts 245°
2026-04-21 12:37 28.48930 109.24402 30052 ft 384 kts 245°
2026-04-21 12:37 28.46536 109.18981 30058 ft 383 kts 245°
2026-04-21 12:38 28.44144 109.13573 30054 ft 383 kts 245°
2026-04-21 12:38 28.41751 109.08175 30058 ft 382 kts 245°
2026-04-21 12:39 28.39355 109.02777 30069 ft 383 kts 245°
2026-04-21 12:39 28.36950 108.97362 30056 ft 384 kts 245°
2026-04-21 12:40 28.34560 108.91989 30056 ft 383 kts 245°
2026-04-21 12:40 28.32158 108.86594 30049 ft 382 kts 244°
2026-04-21 12:41 28.29757 108.81212 30052 ft 382 kts 244°
2026-04-21 12:41 28.27353 108.75827 30041 ft 383 kts 245°
2026-04-21 12:42 28.24945 108.70441 30049 ft 383 kts 244°
2026-04-21 12:42 28.22534 108.65056 30039 ft 384 kts 245°
2026-04-21 12:43 28.20116 108.59662 30033 ft 384 kts 244°
2026-04-21 12:43 28.18101 108.55172 30043 ft 384 kts 244°
2026-04-21 12:44 28.15681 108.49787 30044 ft 384 kts 244°
2026-04-21 12:44 28.13257 108.44400 30044 ft 383 kts 244°
2026-04-21 12:45 28.10840 108.39036 30032 ft 383 kts 244°
2026-04-21 12:45 28.08414 108.33659 30054 ft 383 kts 244°
2026-04-21 12:46 28.05985 108.28281 30043 ft 383 kts 244°
2026-04-21 12:46 28.03573 108.22949 30041 ft 383 kts 244°
2026-04-21 12:47 28.00737 108.16689 30043 ft 381 kts 244°
2026-04-21 12:47 27.98724 108.12250 30036 ft 382 kts 244°
2026-04-21 12:48 27.96298 108.06908 30027 ft 381 kts 244°
2026-04-21 12:48 27.93874 108.01576 30042 ft 382 kts 244°
2026-04-21 12:49 27.91456 107.96263 30048 ft 383 kts 244°
2026-04-21 12:49 27.89012 107.90902 30043 ft 383 kts 244°
2026-04-21 12:50 27.86565 107.85540 30035 ft 383 kts 244°
2026-04-21 12:50 27.84122 107.80192 30035 ft 383 kts 244°
2026-04-21 12:51 27.81683 107.74829 30033 ft 384 kts 245°
2026-04-21 12:51 27.79288 107.69441 30033 ft 384 kts 245°
2026-04-21 12:52 27.76890 107.64040 30033 ft 385 kts 245°
2026-04-21 12:52 27.74498 107.58669 30039 ft 385 kts 245°
2026-04-21 12:53 27.72083 107.53261 30032 ft 385 kts 245°
2026-04-21 12:53 27.69669 107.47865 30025 ft 385 kts 245°
2026-04-21 12:54 27.67256 107.42477 30035 ft 384 kts 245°
2026-04-21 12:54 27.64843 107.37094 30034 ft 385 kts 244°
2026-04-21 12:55 27.62424 107.31706 30022 ft 385 kts 244°
2026-04-21 12:55 27.60022 107.26361 30024 ft 384 kts 244°
2026-04-21 12:56 27.57605 107.20992 30026 ft 384 kts 244°
2026-04-21 12:56 27.55176 107.15624 30030 ft 384 kts 244°
2026-04-21 12:57 27.52741 107.10252 30025 ft 385 kts 244°
2026-04-21 12:57 27.50305 107.04880 30021 ft 385 kts 244°
2026-04-21 12:58 27.47877 106.99532 30020 ft 386 kts 244°
2026-04-21 12:58 27.45453 106.94140 30019 ft 386 kts 245°
2026-04-21 12:59 27.43042 106.88729 30018 ft 387 kts 245°
2026-04-21 12:59 27.40624 106.83316 30027 ft 387 kts 245°
2026-04-21 13:00 27.38199 106.77900 30028 ft 387 kts 245°
2026-04-21 13:00 27.35767 106.72486 30025 ft 387 kts 245°
2026-04-21 13:01 27.33321 106.67080 30021 ft 388 kts 245°
2026-04-21 13:01 27.30887 106.61704 30025 ft 388 kts 245°
2026-04-21 13:02 27.28430 106.56282 30014 ft 389 kts 244°
2026-04-21 13:02 27.24747 106.48165 30021 ft 388 kts 245°
2026-04-21 13:03 27.22287 106.42747 30028 ft 389 kts 245°
2026-04-21 13:03 27.19821 106.37328 30021 ft 390 kts 245°
2026-04-21 13:04 27.17356 106.31903 30022 ft 390 kts 245°
2026-04-21 13:04 27.14887 106.26463 30022 ft 391 kts 245°
2026-04-21 13:05 27.12435 106.21069 30024 ft 390 kts 245°
2026-04-21 13:05 27.09950 106.15610 30022 ft 390 kts 245°
2026-04-21 13:06 27.07496 106.10223 30015 ft 390 kts 245°
2026-04-21 13:06 27.05032 106.04807 30017 ft 389 kts 247°
2026-04-21 13:07 27.03383 105.99066 30025 ft 386 kts 259°
2026-04-21 13:07 27.02290 105.93170 30020 ft 387 kts 259°
2026-04-21 13:08 27.01194 105.87264 30024 ft 386 kts 259°
2026-04-21 13:08 27.00081 105.81373 30018 ft 386 kts 259°
2026-04-21 13:09 26.98961 105.75498 29878 ft 383 kts 259°
2026-04-21 13:09 26.98412 105.72632 29591 ft 376 kts 259°
2026-04-21 13:09 26.97865 105.69784 29312 ft 371 kts 259°
2026-04-21 13:10 26.97325 105.66976 29065 ft 368 kts 259°
2026-04-21 13:10 26.96787 105.64175 28799 ft 366 kts 259°
2026-04-21 13:10 26.96251 105.61390 28543 ft 365 kts 259°
2026-04-21 13:10 26.95717 105.58616 28287 ft 364 kts 259°
2026-04-21 13:11 26.95183 105.55842 28034 ft 363 kts 259°
2026-04-21 13:11 26.94649 105.53078 27776 ft 362 kts 259°
2026-04-21 13:11 26.94116 105.50322 27530 ft 361 kts 259°
2026-04-21 13:11 26.93584 105.47569 27295 ft 360 kts 259°
2026-04-21 13:12 26.93053 105.44829 27047 ft 360 kts 259°
2026-04-21 13:12 26.92522 105.42088 26798 ft 359 kts 259°
2026-04-21 13:12 26.91992 105.39362 26556 ft 357 kts 259°
2026-04-21 13:12 26.91465 105.36648 26319 ft 356 kts 259°
2026-04-21 13:13 26.90947 105.33982 26077 ft 354 kts 259°
2026-04-21 13:13 26.90422 105.31288 25843 ft 352 kts 259°
2026-04-21 13:13 26.89902 105.28620 25614 ft 350 kts 259°
2026-04-21 13:13 26.89381 105.25955 25374 ft 349 kts 259°
2026-04-21 13:14 26.88863 105.23303 25144 ft 348 kts 259°
2026-04-21 13:14 26.88347 105.20661 24918 ft 346 kts 259°
2026-04-21 13:14 26.87832 105.18032 24694 ft 345 kts 259°
2026-04-21 13:14 26.87318 105.15407 24464 ft 344 kts 259°
2026-04-21 13:15 26.86805 105.12790 24244 ft 343 kts 259°
2026-04-21 13:15 26.86294 105.10186 24023 ft 343 kts 259°
2026-04-21 13:15 26.85781 105.07576 23800 ft 342 kts 259°
2026-04-21 13:15 26.85270 105.04978 23598 ft 340 kts 259°
2026-04-21 13:16 26.84761 105.02393 23550 ft 341 kts 259°
2026-04-21 13:16 26.84257 104.99835 23500 ft 339 kts 259°
2026-04-21 13:16 26.83744 104.97237 23495 ft 337 kts 259°
2026-04-21 13:16 26.83244 104.94702 23504 ft 338 kts 259°
2026-04-21 13:17 26.82736 104.92131 23489 ft 339 kts 259°
2026-04-21 13:17 26.82226 104.89554 23487 ft 338 kts 259°
2026-04-21 13:17 26.81718 104.86991 23486 ft 337 kts 259°
2026-04-21 13:17 26.81211 104.84436 23471 ft 335 kts 259°
2026-04-21 13:18 26.80705 104.81891 23476 ft 335 kts 259°
2026-04-21 13:18 26.80200 104.79350 23475 ft 334 kts 259°
2026-04-21 13:18 26.79695 104.76813 23463 ft 334 kts 259°
2026-04-21 13:18 26.79191 104.74280 23472 ft 333 kts 259°
2026-04-21 13:19 26.78687 104.71748 23468 ft 334 kts 259°
2026-04-21 13:19 26.78181 104.69211 23468 ft 334 kts 259°
2026-04-21 13:19 26.77675 104.66677 23450 ft 335 kts 259°
2026-04-21 13:19 26.77097 104.64145 23441 ft 337 kts 252°
2026-04-21 13:20 26.76449 104.62563 23422 ft 340 kts 245°
2026-04-21 13:20 26.74634 104.59587 23063 ft 352 kts 233°
2026-04-21 13:20 26.72825 104.57718 22814 ft 355 kts 226°
2026-04-21 13:20 26.70918 104.55975 22566 ft 354 kts 225°
2026-04-21 13:21 26.69001 104.54269 22322 ft 352 kts 224°
2026-04-21 13:21 26.67085 104.52569 22076 ft 351 kts 224°
2026-04-21 13:21 26.65174 104.50865 21830 ft 350 kts 224°
2026-04-21 13:21 26.63301 104.49186 21591 ft 349 kts 224°
2026-04-21 13:22 26.61411 104.47485 21326 ft 348 kts 224°
2026-04-21 13:22 26.59540 104.45796 21081 ft 345 kts 224°
2026-04-21 13:22 26.57683 104.44115 20871 ft 343 kts 224°
2026-04-21 13:22 26.55830 104.42436 20613 ft 343 kts 224°
2026-04-21 13:23 26.53980 104.40760 20401 ft 343 kts 224°
2026-04-21 13:23 26.52129 104.39083 20151 ft 342 kts 224°
2026-04-21 13:23 26.50280 104.37408 19928 ft 342 kts 223°
2026-04-21 13:23 26.48432 104.35735 19696 ft 342 kts 223°
2026-04-21 13:24 26.46588 104.34067 19465 ft 342 kts 223°
2026-04-21 13:24 26.44743 104.32398 19249 ft 341 kts 223°
2026-04-21 13:24 26.42898 104.30729 19034 ft 341 kts 223°
2026-04-21 13:24 26.41044 104.29053 18823 ft 342 kts 223°
2026-04-21 13:25 26.39200 104.27387 18595 ft 342 kts 223°
2026-04-21 13:25 26.37348 104.25716 18377 ft 342 kts 222°
2026-04-21 13:25 26.35498 104.24046 18165 ft 341 kts 222°
2026-04-21 13:25 26.33653 104.22381 17947 ft 341 kts 222°
2026-04-21 13:26 26.31810 104.20720 17697 ft 340 kts 222°
2026-04-21 13:26 26.29976 104.19066 17466 ft 339 kts 222°
2026-04-21 13:26 26.28176 104.17445 17397 ft 337 kts 222°
2026-04-21 13:26 26.26354 104.15804 17362 ft 337 kts 222°
2026-04-21 13:27 26.24545 104.14176 17355 ft 330 kts 222°
2026-04-21 13:27 26.22780 104.12590 17348 ft 320 kts 222°
2026-04-21 13:27 26.21074 104.11059 17347 ft 310 kts 223°
2026-04-21 13:27 26.19405 104.09558 17353 ft 308 kts 223°
2026-04-21 13:28 26.17731 104.08051 17360 ft 310 kts 223°
2026-04-21 13:28 26.16046 104.06534 17375 ft 312 kts 223°
2026-04-21 13:28 26.14356 104.05014 17372 ft 313 kts 223°
2026-04-21 13:28 26.12657 104.03487 17378 ft 314 kts 223°
2026-04-21 13:29 26.10953 104.01958 17368 ft 315 kts 223°
2026-04-21 13:29 26.09269 104.00446 17367 ft 315 kts 223°
2026-04-21 13:29 26.07562 103.98917 17374 ft 315 kts 223°
2026-04-21 13:29 26.05858 103.97388 17367 ft 314 kts 223°
2026-04-21 13:30 26.04160 103.95866 17371 ft 313 kts 222°
2026-04-21 13:30 26.02468 103.94350 17375 ft 312 kts 222°
2026-04-21 13:30 26.00777 103.92836 17377 ft 311 kts 222°
2026-04-21 13:30 25.99091 103.91327 17374 ft 311 kts 222°
2026-04-21 13:31 25.97442 103.89779 17368 ft 308 kts 230°
2026-04-21 13:31 25.96155 103.87904 17388 ft 304 kts 238°
2026-04-21 13:31 25.94972 103.85948 17379 ft 305 kts 239°
2026-04-21 13:31 25.93792 103.83980 17297 ft 309 kts 239°
2026-04-21 13:32 25.92586 103.81991 17100 ft 310 kts 238°
2026-04-21 13:32 25.91369 103.80011 16916 ft 309 kts 238°
2026-04-21 13:32 25.90172 103.78076 16734 ft 307 kts 238°
2026-04-21 13:32 25.88965 103.76132 16534 ft 304 kts 238°
2026-04-21 13:33 25.87702 103.74256 16343 ft 303 kts 228°
2026-04-21 13:33 25.86058 103.72773 16174 ft 303 kts 219°
2026-04-21 13:33 25.84339 103.71427 15985 ft 301 kts 219°
2026-04-21 13:33 25.82623 103.70102 15810 ft 299 kts 218°
2026-04-21 13:34 25.80922 103.68778 15627 ft 298 kts 219°
2026-04-21 13:34 25.79258 103.67471 15451 ft 296 kts 219°
2026-04-21 13:34 25.77569 103.66134 15334 ft 294 kts 219°
2026-04-21 13:34 25.75928 103.64831 15200 ft 293 kts 219°
2026-04-21 13:35 25.74271 103.63513 15071 ft 292 kts 219°
2026-04-21 13:35 25.72623 103.62205 14947 ft 291 kts 219°
2026-04-21 13:35 25.70974 103.60899 14809 ft 290 kts 219°
2026-04-21 13:35 25.69333 103.59602 14686 ft 289 kts 219°
2026-04-21 13:36 25.68251 103.58748 14599 ft 288 kts 219°
2026-04-21 13:36 25.66077 103.57028 14430 ft 286 kts 219°
2026-04-21 13:36 25.65006 103.56181 14350 ft 286 kts 220°
2026-04-21 13:36 25.63390 103.54904 14220 ft 284 kts 219°
2026-04-21 13:37 25.61782 103.53635 14099 ft 284 kts 220°
2026-04-21 13:37 25.60173 103.52365 13979 ft 283 kts 220°
2026-04-21 13:37 25.58820 103.50825 13842 ft 277 kts 237°
2026-04-21 13:37 25.57719 103.49074 13731 ft 277 kts 238°
2026-04-21 13:38 25.56284 103.46744 13554 ft 276 kts 238°
2026-04-21 13:38 25.55553 103.45562 13468 ft 275 kts 238°
2026-04-21 13:38 25.54476 103.43831 13261 ft 277 kts 238°
2026-04-21 13:38 25.53377 103.42074 13045 ft 277 kts 238°
2026-04-21 13:39 25.52280 103.40326 12838 ft 275 kts 238°
2026-04-21 13:39 25.51194 103.38604 12628 ft 271 kts 238°
2026-04-21 13:39 25.50123 103.36908 12411 ft 267 kts 238°
2026-04-21 13:39 25.49067 103.35238 12191 ft 262 kts 238°
2026-04-21 13:40 25.48036 103.33608 11978 ft 255 kts 238°
2026-04-21 13:40 25.47032 103.32023 11776 ft 249 kts 238°
2026-04-21 13:40 25.45721 103.29954 11497 ft 242 kts 238°
2026-04-21 13:40 25.45086 103.28951 11355 ft 239 kts 238°
2026-04-21 13:41 25.44144 103.27463 11155 ft 234 kts 238°
2026-04-21 13:41 25.43216 103.25998 10952 ft 230 kts 238°
2026-04-21 13:41 25.42303 103.24558 10750 ft 226 kts 238°
2026-04-21 13:41 25.41407 103.23147 10599 ft 222 kts 238°
2026-04-21 13:42 25.40514 103.21739 10478 ft 226 kts 238°
2026-04-21 13:42 25.39612 103.20322 10362 ft 226 kts 237°
2026-04-21 13:42 25.38759 103.19281 10311 ft 228 kts 227°
2026-04-21 13:42 25.37586 103.18145 10187 ft 219 kts 224°
2026-04-21 13:43 25.36443 103.17124 10078 ft 204 kts 224°
2026-04-21 13:43 25.35361 103.16172 9965 ft 199 kts 224°
2026-04-21 13:43 25.34288 103.15231 9873 ft 195 kts 224°
2026-04-21 13:43 25.33237 103.14309 9770 ft 190 kts 224°
2026-04-21 13:44 25.32226 103.13422 9628 ft 180 kts 224°
2026-04-21 13:44 25.31290 103.12599 9636 ft 169 kts 225°
2026-04-21 13:44 25.30370 103.11785 9650 ft 168 kts 224°
2026-04-21 13:44 25.29468 103.10992 9649 ft 164 kts 224°
2026-04-21 13:45 25.28569 103.10203 9659 ft 165 kts 224°
2026-04-21 13:45 25.27671 103.09418 9671 ft 163 kts 225°
2026-04-21 13:45 25.26781 103.08640 9680 ft 163 kts 225°
2026-04-21 13:45 25.25894 103.07864 9705 ft 163 kts 225°
2026-04-21 13:46 25.25004 103.07085 9720 ft 163 kts 225°
2026-04-21 13:46 25.24108 103.06302 9731 ft 165 kts 225°
2026-04-21 13:46 25.23209 103.05516 9643 ft 165 kts 225°
2026-04-21 13:46 25.22320 103.04740 9443 ft 159 kts 225°
2026-04-21 13:47 25.21506 103.04031 9267 ft 142 kts 225°
2026-04-21 13:47 25.20763 103.03381 9098 ft 133 kts 225°
2026-04-21 13:47 25.20047 103.02754 8943 ft 131 kts 225°
2026-04-21 13:47 25.19317 103.02113 8793 ft 136 kts 225°
2026-04-21 13:48 25.18566 103.01456 8606 ft 138 kts 225°
2026-04-21 13:48 25.17815 103.00798 8442 ft 137 kts 224°
2026-04-21 13:48 25.17087 103.00162 8288 ft 135 kts 224°
2026-04-21 13:48 25.16338 102.99506 8109 ft 138 kts 224°
2026-04-21 13:49 25.15589 102.98850 7944 ft 138 kts 223°
2026-04-21 13:49 25.14913 102.98259 7789 ft 139 kts 222°
2026-04-21 13:49 25.14148 102.97590 7645 ft 141 kts 221°
2026-04-21 13:49 25.13363 102.96907 7360 ft 144 kts 219°
2026-04-21 13:50 25.12589 102.96241 7093 ft 137 kts 220°
2026-04-21 13:50 25.11865 102.95609 6895 ft 133 kts 220°
2026-04-21 13:50 25.11086 102.94927 7102 ft 152 kts 220°
2026-04-21 13:50 25.10187 102.94151 7368 ft 180 kts 221°
2026-04-21 13:51 25.09184 102.93277 7913 ft 185 kts 219°
2026-04-21 13:51 25.08065 102.92414 8241 ft 209 kts 218°
2026-04-21 13:51 25.06804 102.91453 8617 ft 233 kts 219°
2026-04-21 13:51 25.05405 102.90393 8948 ft 248 kts 218°
2026-04-21 13:52 25.03975 102.89326 9323 ft 246 kts 218°
2026-04-21 13:52 25.02556 102.88277 9661 ft 246 kts 218°
2026-04-21 13:52 25.01060 102.87335 9962 ft 254 kts 204°
2026-04-21 13:52 24.99265 102.87201 10317 ft 269 kts 176°
2026-04-21 13:53 24.97523 102.88064 10768 ft 284 kts 148°
2026-04-21 13:53 24.96168 102.89731 11282 ft 304 kts 130°
2026-04-21 13:53 24.94927 102.91701 11753 ft 320 kts 129°
2026-04-21 13:53 24.93753 102.93809 12207 ft 327 kts 115°
2026-04-21 13:54 24.93286 102.96266 12653 ft 331 kts 90°
2026-04-21 13:54 24.93670 102.98766 12699 ft 334 kts 66°
2026-04-21 13:54 24.94861 103.00880 12740 ft 328 kts 44°
2026-04-21 13:54 24.96450 103.02656 12743 ft 324 kts 39°
2026-04-21 13:55 24.98084 103.04360 12745 ft 323 kts 38°
2026-04-21 13:55 24.99720 103.06046 12744 ft 321 kts 38°
2026-04-21 13:55 25.01354 103.07721 12750 ft 320 kts 38°
2026-04-21 13:55 25.02992 103.09395 12745 ft 321 kts 38°
2026-04-21 13:56 25.04628 103.11072 12722 ft 321 kts 38°
2026-04-21 13:56 25.06265 103.12759 12610 ft 324 kts 38°
2026-04-21 13:56 25.07903 103.14451 12376 ft 319 kts 38°
2026-04-21 13:56 25.09498 103.16093 12150 ft 308 kts 38°
2026-04-21 13:57 25.11037 103.17684 11943 ft 299 kts 38°
2026-04-21 13:57 25.12531 103.19237 11670 ft 292 kts 38°
2026-04-21 13:57 25.14014 103.20770 11542 ft 294 kts 38°
2026-04-21 13:57 25.15524 103.22329 11303 ft 298 kts 38°
2026-04-21 13:58 25.17046 103.23889 11137 ft 300 kts 38°
2026-04-21 13:58 25.18580 103.25455 10907 ft 299 kts 37°
2026-04-21 13:58 25.20334 103.26500 10675 ft 277 kts
2026-04-21 13:58 25.22124 103.26347 10505 ft 248 kts 331°
2026-04-21 13:59 25.23603 103.25533 10375 ft 237 kts 320°
2026-04-21 13:59 25.24883 103.24377 10217 ft 233 kts 306°
2026-04-21 13:59 25.25887 103.23034 10101 ft 226 kts 302°
2026-04-21 13:59 25.26827 103.21687 9940 ft 216 kts 302°
2026-04-21 14:00 25.27721 103.20410 9791 ft 203 kts 302°
2026-04-21 14:00 25.28567 103.19205 9646 ft 197 kts 301°
2026-04-21 14:00 25.29408 103.18010 9620 ft 197 kts 301°
2026-04-21 14:00 25.30248 103.16822 9614 ft 195 kts 301°
2026-04-21 14:01 25.31049 103.15629 9614 ft 191 kts 291°
2026-04-21 14:01 25.31141 103.14248 9627 ft 184 kts 248°
2026-04-21 14:01 25.30435 103.13062 9643 ft 186 kts 237°
2026-04-21 14:01 25.29644 103.11940 9645 ft 182 kts 234°
2026-04-21 14:02 25.28825 103.10927 9650 ft 171 kts 231°
2026-04-21 14:02 25.28024 103.10001 9651 ft 163 kts 230°
2026-04-21 14:02 25.27225 103.09144 9686 ft 163 kts 228°
2026-04-21 14:03 25.25459 103.07497 9713 ft 166 kts 225°
2026-04-21 14:03 25.24570 103.06709 9739 ft 167 kts 225°
2026-04-21 14:03 25.23650 103.05903 9699 ft 165 kts 225°
2026-04-21 14:03 25.22777 103.05140 9532 ft 160 kts 225°
2026-04-21 14:04 25.21942 103.04412 9360 ft 144 kts 226°
2026-04-21 14:04 25.21196 103.03760 9173 ft 133 kts 225°
2026-04-21 14:04 25.20469 103.03122 9016 ft 135 kts 224°
2026-04-21 14:04 25.19735 103.02478 8867 ft 136 kts 224°
2026-04-21 14:05 25.18986 103.01824 8712 ft 139 kts 226°
2026-04-21 14:05 25.18221 103.01153 8538 ft 140 kts 225°
2026-04-21 14:05 25.17459 103.00486 8367 ft 139 kts 224°
2026-04-21 14:05 25.16733 102.99852 8181 ft 137 kts 224°
2026-04-21 14:06 25.15987 102.99200 8026 ft 137 kts 223°
2026-04-21 14:06 25.15238 102.98544 7871 ft 138 kts 223°
2026-04-21 14:06 25.14470 102.97872 7692 ft 147 kts 222°
2026-04-21 14:06 25.13688 102.97190 7502 ft 145 kts 220°
2026-04-21 14:07 25.12882 102.96504 7210 ft 143 kts 219°
2026-04-21 14:07 25.12129 102.95830 6972 ft 140 kts 220°
2026-04-21 14:07 25.11393 102.95180 6890 ft 127 kts 219°
2026-04-21 14:07 25.10797 102.94659 6888 ft 88 kts 218°
2026-04-21 14:08 25.10422 102.94335 6892 ft 51 kts 218°
2026-04-21 14:08 25.10165 102.94109 6893 ft 44 kts 219°
2026-04-21 14:08 25.10034 102.93923 6892 ft 14 kts 243°
2026-04-21 14:08 25.10000 102.93850 6892 ft 11 kts 243°
2026-04-21 14:09 25.09970 102.93777 6893 ft 10 kts 248°
2026-04-21 14:09 25.09972 102.93704 6893 ft 10 kts 303°
2026-04-21 14:09 25.10020 102.93651 6893 ft 10 kts 343°
2026-04-21 14:09 25.10082 102.93673 6893 ft 10 kts 29°
2026-04-21 14:10 25.10133 102.93718 6893 ft 9 kts 40°
2026-04-21 14:10 25.10184 102.93763 6893 ft 10 kts 38°
2026-04-21 14:10 25.10236 102.93809 6893 ft 9 kts 38°
2026-04-21 14:10 25.10289 102.93854 6893 ft 10 kts 38°
2026-04-21 14:11 25.10344 102.93901 6893 ft 10 kts 38°
2026-04-21 14:11 25.10402 102.93952 6892 ft 11 kts 38°
2026-04-21 14:11 25.10463 102.94004 6892 ft 12 kts 38°
2026-04-21 14:11 25.10529 102.94061 6892 ft 12 kts 38°
2026-04-21 14:12 25.10595 102.94119 6892 ft 13 kts 38°
2026-04-21 14:12 25.10663 102.94179 6891 ft 13 kts 39°
2026-04-21 14:12 25.10734 102.94241 6891 ft 13 kts 38°
2026-04-21 14:12 25.10808 102.94304 6891 ft 14 kts 38°
2026-04-21 14:13 25.10884 102.94370 6890 ft 14 kts 38°
2026-04-21 14:13 25.10962 102.94437 6890 ft 14 kts 38°
2026-04-21 14:13 25.11044 102.94415 6890 ft 14 kts 310°
2026-04-21 14:13 25.11081 102.94326 6891 ft 13 kts 248°
2026-04-21 14:14 25.11035 102.94248 6891 ft 13 kts 286°
2026-04-21 14:14 25.11090 102.94172 6892 ft 13 kts 308°
2026-04-21 14:14 25.11143 102.94097 6892 ft 12 kts 308°
2026-04-21 14:14 25.11196 102.94025 6893 ft 12 kts 309°
2026-04-21 14:15 25.11213 102.93962 6894 ft 8 kts 229°
2026-04-21 14:15 25.11178 102.93924 6894 ft 4 kts 220°
2026-04-21 14:15 25.11159 102.93906 6894 ft 0 kts 220°
2026-04-21 14:16 25.11158 102.93905 6894 ft 1 kts 220°
2026-04-21 14:16 25.11155 102.93902 6894 ft 0 kts 220°